User: anonymous   Login
Location: Unspecified
(0.0000°N, 0.0000°E)
Time: 17:55:09
(UTC+02:00)
Language:

ARIANE 5 R/B - Orbit

View from above orbital plane
View from above orbital plane
View from above satellite
View from above satellite

Ground track
Ground track

The orbit data is extracted from the following two-line orbital elements,

1 28379U 04027B   17232.59442285 +.00000110 +00000-0 +58265-3 0  9997
2 28379 007.2140 308.5452 7283427 113.8299 004.5494 02.07928595099469
Epoch (UTC): 20 August 2017 14:15:58
Eccentricity: 0.7283427
inclination: 7.2140°
perigee height: 666 km
apogee height: 38436 km
right ascension of ascending node: 308.5452°
argument of perigee: 113.8299°
revolutions per day: 2.07928595
mean anomaly at epoch: 4.5494°
orbit number at epoch: 9946

The dashed part of the orbit path shows where the satellite is in the earth's shadow,  

DLR